TimeCDT,TemperatureF,Dew PointF,Humidity,Sea Level PressureIn,VisibilityMPH,Wind Direction,Wind SpeedMPH,Gust SpeedMPH,PrecipitationIn,Events,Conditions,WindDirDegrees,DateUTC
12:15 AM,64.4,51.8,64,29.92,10.0,South,3.5,-,N/A,,Clear,180,2012-11-03 05:15:00
12:35 AM,64.4,51.8,64,29.93,10.0,Calm,Calm,-,N/A,,Clear,0,2012-11-03 05:35:00
12:55 AM,62.6,51.8,68,29.94,10.0,Calm,Calm,-,N/A,,Clear,0,2012-11-03 05:55:00
1:15 AM,64.4,51.8,64,29.96,10.0,NNW,5.8,-,N/A,,Clear,340,2012-11-03 06:15:00
1:35 AM,64.4,51.8,64,29.97,10.0,Calm,Calm,-,N/A,,Clear,0,2012-11-03 06:35:00
1:55 AM,64.4,51.8,64,29.97,10.0,Calm,Calm,-,N/A,,Clear,0,2012-11-03 06:55:00
2:15 AM,59.0,51.8,77,29.97,10.0,East,3.5,-,N/A,,Clear,90,2012-11-03 07:15:00
2:35 AM,59.0,51.8,77,29.97,10.0,East,4.6,-,N/A,,Clear,100,2012-11-03 07:35:00
2:55 AM,59.0,51.8,77,29.97,10.0,North,3.5,-,N/A,,Clear,10,2012-11-03 07:55:00
3:15 AM,59.0,48.2,67,29.98,10.0,NNE,9.2,-,N/A,,Clear,20,2012-11-03 08:15:00
3:35 AM,59.0,46.4,63,29.99,10.0,NNE,10.4,-,N/A,,Clear,20,2012-11-03 08:35:00
3:55 AM,59.0,46.4,63,29.99,10.0,North,8.1,-,N/A,,Clear,10,2012-11-03 08:55:00
4:15 AM,57.2,46.4,67,29.99,10.0,North,9.2,-,N/A,,Clear,10,2012-11-03 09:15:00
4:35 AM,55.4,46.4,72,30.00,10.0,NNE,11.5,-,N/A,,Clear,20,2012-11-03 09:35:00
4:55 AM,55.4,44.6,67,30.01,10.0,NNE,9.2,-,N/A,,Clear,20,2012-11-03 09:55:00
5:15 AM,55.4,44.6,67,30.02,10.0,North,9.2,-,N/A,,Clear,10,2012-11-03 10:15:00
5:35 AM,55.4,44.6,67,30.03,10.0,NNE,12.7,-,N/A,,Clear,20,2012-11-03 10:35:00
5:55 AM,53.6,44.6,72,30.04,10.0,NNE,8.1,16.1,N/A,,Clear,20,2012-11-03 10:55:00
6:15 AM,53.6,44.6,72,30.05,10.0,NNE,9.2,16.1,N/A,,Clear,20,2012-11-03 11:15:00
6:35 AM,53.6,44.6,72,30.07,10.0,NNE,8.1,-,N/A,,Clear,20,2012-11-03 11:35:00
6:55 AM,51.8,42.8,71,30.07,10.0,North,11.5,-,N/A,,Clear,10,2012-11-03 11:55:00
7:15 AM,51.8,42.8,71,30.08,10.0,NNE,12.7,17.3,N/A,,Clear,20,2012-11-03 12:15:00
7:35 AM,51.8,42.8,71,30.08,10.0,NNE,10.4,-,N/A,,Clear,20,2012-11-03 12:35:00
7:55 AM,51.8,41.0,67,30.09,10.0,NNE,11.5,-,N/A,,Clear,20,2012-11-03 12:55:00
8:15 AM,51.8,41.0,67,30.10,10.0,NNE,11.5,18.4,N/A,,Clear,20,2012-11-03 13:15:00
8:35 AM,51.8,41.0,67,30.11,10.0,NNE,9.2,-,N/A,,Clear,20,2012-11-03 13:35:00
8:55 AM,51.8,41.0,67,30.12,10.0,NNE,8.1,16.1,N/A,,Clear,30,2012-11-03 13:55:00
9:15 AM,53.6,41.0,62,30.13,10.0,NNE,9.2,17.3,N/A,,Clear,20,2012-11-03 14:15:00
9:35 AM,53.6,41.0,62,30.14,10.0,NNE,9.2,18.4,N/A,,Clear,30,2012-11-03 14:35:00
9:55 AM,53.6,41.0,62,30.14,10.0,NNE,12.7,19.6,N/A,,Clear,30,2012-11-03 14:55:00
10:15 AM,55.4,39.2,54,30.14,10.0,NNE,16.1,23.0,N/A,,Clear,30,2012-11-03 15:15:00
10:35 AM,57.2,39.2,51,30.14,10.0,NNE,13.8,-,N/A,,Clear,30,2012-11-03 15:35:00
10:55 AM,59.0,39.2,48,30.14,10.0,NE,15.0,-,N/A,,Clear,40,2012-11-03 15:55:00
11:15 AM,60.8,39.2,45,30.15,10.0,NE,13.8,17.3,N/A,,Clear,40,2012-11-03 16:15:00
11:35 AM,60.8,39.2,45,30.15,10.0,NNE,10.4,-,N/A,,Clear,20,2012-11-03 16:35:00
11:55 AM,62.6,39.2,42,30.15,10.0,NNE,12.7,-,N/A,,Clear,30,2012-11-03 16:55:00
12:15 PM,62.6,39.2,42,30.14,10.0,NE,10.4,-,N/A,,Clear,50,2012-11-03 17:15:00
12:35 PM,64.4,39.2,40,30.13,10.0,NNE,10.4,-,N/A,,Clear,20,2012-11-03 17:35:00
12:55 PM,64.4,39.2,40,30.12,10.0,NE,12.7,17.3,N/A,,Clear,40,2012-11-03 17:55:00
1:15 PM,64.4,39.2,40,30.12,10.0,NE,8.1,-,N/A,,Clear,50,2012-11-03 18:15:00
1:35 PM,66.2,41.0,40,30.11,10.0,ENE,11.5,-,N/A,,Clear,70,2012-11-03 18:35:00
1:55 PM,68.0,41.0,37,30.10,10.0,NE,5.8,9.2,N/A,,Clear,50,2012-11-03 18:55:00
2:15 PM,68.0,41.0,37,30.10,10.0,ENE,9.2,16.1,N/A,,Clear,60,2012-11-03 19:15:00
2:35 PM,69.8,41.0,35,30.09,10.0,NE,8.1,-,N/A,,Clear,50,2012-11-03 19:35:00
2:55 PM,69.8,41.0,35,30.09,10.0,ENE,8.1,-,N/A,,Clear,60,2012-11-03 19:55:00
3:15 PM,69.8,41.0,35,30.08,10.0,NE,9.2,-,N/A,,Clear,40,2012-11-03 20:15:00
3:35 PM,69.8,41.0,35,30.08,10.0,NE,8.1,-,N/A,,Clear,50,2012-11-03 20:35:00
3:55 PM,69.8,39.2,33,30.08,10.0,NNE,9.2,-,N/A,,Clear,30,2012-11-03 20:55:00
4:15 PM,69.8,37.4,31,30.08,3.0,NE,9.2,-,N/A,,Haze,40,2012-11-03 21:15:00
4:35 PM,69.8,37.4,31,30.08,10.0,NE,11.5,16.1,N/A,,Clear,40,2012-11-03 21:35:00
4:55 PM,69.8,37.4,31,30.09,5.0,NNE,12.7,-,N/A,,Haze,30,2012-11-03 21:55:00
5:15 PM,69.8,37.4,31,30.09,10.0,NNE,10.4,-,N/A,,Clear,30,2012-11-03 22:15:00
5:35 PM,68.0,37.4,33,30.09,10.0,NE,10.4,-,N/A,,Clear,50,2012-11-03 22:35:00
5:55 PM,68.0,37.4,33,30.09,10.0,NNE,11.5,-,N/A,,Clear,20,2012-11-03 22:55:00
6:15 PM,64.4,37.4,37,30.09,10.0,NNE,8.1,-,N/A,,Clear,30,2012-11-03 23:15:00
6:35 PM,62.6,37.4,39,30.10,10.0,NNE,5.8,-,N/A,,Clear,20,2012-11-03 23:35:00
6:55 PM,60.8,39.2,45,30.10,10.0,NNE,6.9,-,N/A,,Clear,20,2012-11-03 23:55:00
7:15 PM,60.8,37.4,42,30.12,10.0,NNE,6.9,-,N/A,,Clear,30,2012-11-04 00:15:00
7:35 PM,60.8,37.4,42,30.12,10.0,NNE,8.1,-,N/A,,Clear,30,2012-11-04 00:35:00
7:55 PM,59.0,37.4,45,30.12,10.0,NNE,5.8,-,N/A,,Clear,30,2012-11-04 00:55:00
8:15 PM,57.2,37.4,48,30.12,10.0,NNE,6.9,-,N/A,,Clear,20,2012-11-04 01:15:00
8:35 PM,55.4,37.4,51,30.13,10.0,NNE,6.9,-,N/A,,Clear,20,2012-11-04 01:35:00
8:55 PM,55.4,37.4,51,30.13,10.0,NNE,6.9,-,N/A,,Clear,30,2012-11-04 01:55:00
9:15 PM,55.4,37.4,51,30.14,10.0,NE,5.8,-,N/A,,Clear,40,2012-11-04 02:15:00
9:35 PM,55.4,37.4,51,30.14,10.0,NNE,6.9,-,N/A,,Clear,30,2012-11-04 02:35:00
9:55 PM,53.6,37.4,54,30.14,10.0,NNE,6.9,-,N/A,,Clear,30,2012-11-04 02:55:00
10:15 PM,53.6,37.4,54,30.14,10.0,NNE,6.9,-,N/A,,Clear,20,2012-11-04 03:15:00
10:35 PM,53.6,37.4,54,30.15,10.0,NNE,6.9,-,N/A,,Clear,30,2012-11-04 03:35:00
10:55 PM,53.6,37.4,54,30.15,10.0,NNE,5.8,-,N/A,,Clear,30,2012-11-04 03:55:00
11:15 PM,53.6,37.4,54,30.15,10.0,NE,5.8,-,N/A,,Clear,40,2012-11-04 04:15:00
11:35 PM,51.8,37.4,58,30.15,10.0,NNE,4.6,-,N/A,,Clear,30,2012-11-04 04:35:00
11:55 PM,51.8,37.4,58,30.15,10.0,NE,5.8,-,N/A,,Clear,40,2012-11-04 04:55:00